Date,TemperatureHighF,TemperatureAvgF,TemperatureLowF,DewpointHighF,DewpointAvgF,DewpointLowF,HumidityHigh,HumidityAvg,HumidityLow,PressureMaxIn,PressureMinIn,WindSpeedMaxMPH,WindSpeedAvgMPH,GustSpeedMaxMPH,PrecipitationSumIn
2013-9-1,102.6,82.5,71.2,73.0,67.4,58.1,92,67,26,29.76,29.65,29,2,29,0.12
2013-9-2,99.9,82.3,71.4,74.0,67.6,61.4,94,66,31,29.79,29.68,15,2,15,0.04
2013-9-3,102.7,84.2,71.6,76.2,66.8,58.9,94,61,27,29.79,29.68,10,2,10,0.04
2013-9-4,79.0,75.7,73.6,72.4,69.0,61.4,90,80,60,29.85,29.74,4,0,4,0.04
2013-9-5,102.7,82.4,72.1,75.6,68.3,61.4,90,66,28,29.85,29.76,8,1,8,0.75
2013-9-6,102.2,78.9,71.2,81.1,71.7,57.9,95,83,32,29.82,29.74,12,2,12,2.25
2013-9-7,99.5,79.6,70.9,76.5,67.7,58.0,96,72,27,29.79,29.68,6,2,6,2.04
2013-9-8,73.0,72.1,71.4,68.8,67.8,66.5,88,86,83,29.74,29.71,1,1,1,0.00
2013-9-13,82.8,79.8,78.1,68.7,66.6,64.1,73,64,54,29.62,29.59,8,2,8,0.00
2013-9-14,102.6,85.7,73.2,73.9,66.3,58.5,90,58,26,29.68,29.59,11,2,11,0.00
2013-9-15,93.7,81.5,78.8,69.8,66.8,60.8,74,62,35,29.82,29.76,9,2,9,0.00
2013-9-16,99.5,82.7,71.8,73.5,65.9,57.7,85,61,29,29.82,29.74,15,2,15,0.00
2013-9-17,98.8,81.8,72.1,74.3,66.1,59.7,92,63,31,29.82,29.74,14,2,14,0.00
2013-9-18,96.4,81.5,73.9,71.5,65.9,58.9,84,62,33,29.79,29.74,13,3,13,0.00
2013-9-19,98.2,84.5,72.7,71.2,63.8,56.4,88,53,29,29.82,29.74,14,3,14,0.00
2013-9-20,95.9,79.7,68.2,70.3,62.2,55.3,93,60,29,29.79,29.68,9,2,9,0.00
2013-9-21,99.0,80.7,68.4,72.2,62.8,55.0,93,60,28,29.71,29.53,9,1,9,0.00
2013-9-22,97.3,80.7,73.4,71.2,66.3,60.6,91,64,32,29.65,29.53,26,2,26,0.62
2013-9-23,94.8,76.9,73.0,74.7,71.1,64.8,94,84,43,29.74,29.62,7,1,7,1.25
2013-9-24,91.2,77.5,72.3,74.2,70.8,64.8,93,81,47,29.74,29.62,10,1,10,0.99
2013-9-25,87.3,77.6,72.3,72.9,67.6,62.1,93,73,45,29.62,29.56,14,2,14,0.04
2013-9-26,94.5,84.3,74.3,75.5,63.2,52.4,93,54,27,29.65,29.53,14,3,14,0.00
2013-9-27,87.3,81.9,73.0,67.6,60.4,53.0,81,51,31,29.74,29.62,13,3,13,0.04
2013-9-28,76.5,71.4,69.8,68.2,67.3,63.8,93,88,65,29.79,29.68,13,2,13,0.00
2013-9-29,70.3,70.3,70.3,68.2,68.2,68.2,93,93,93,29.76,29.68,9,2,11,0.00
2013-9-30,70.3,70.3,70.3,68.2,68.2,68.2,93,93,93,29.79,29.68,12,2,12,0.00